Other Public Products
Issued by NWS Grand Forks, ND

Home | Current Version | Previous Version | Graphics & Text | Print | Product List | Glossary On
Versions: 1 2 3 4 5 6 7 8 9 10 11 12 13 14 15 16 17 18 19 20 21 22 23 24 25 26 27 28 29 30 31 32 33 34 35 36 37 38 39 40 41 42 43 44 45 46 47 48 49 50
742
FPUS83 KFGF 171331
OPUFGF
PRAIRIE TO PINES WEATHER ROUNDUP
NATIONAL WEATHER SERVICE EASTERN NORTH DAKOTA/GRAND FORKS ND
800 AM CDT THU AUG 17 2017

 **SATELLITE DATA USED TO AUGMENT SKY COVER AT AUTOMATED STATIONS**
 *****  WEATHER ACROSS EASTERN NORTH DAKOTA  *****

CITY           SKY/WX    TMP DP  RH WIND       PRES   REMARKS
GRAND FORKS    FOG       59  59 100 N12       29.83S VSB 1/4
GRAND FORKS AF FOG       59  59 100 NW6       29.84S VSB 1/4
GRAND CITY NWS NOT AVBL
BUXTON           N/A     60  59  99 NW12        N/A
DEVILS LAKE    FAIR      57  57 100 NW3       29.88S
FARGO          CLOUDY    63  61  93 N16       29.81R
WAHPETON ARPT  CLOUDY    61  57  88 NW17G23   29.80R
$$

 *****  WEATHER ACROSS CENTRAL AND WESTERN NORTH DAKOTA  *****

CITY           SKY/WX    TMP DP  RH WIND       PRES   REMARKS
JAMESTOWN      FAIR      58  56  93 NW7       29.87R
BISMARCK       FAIR      57  55  93 CALM      29.91S
MINOT          FAIR      61  55  81 S7        29.85F
MINOT AFB      FAIR      58  55  88 S5        29.84S
GARRISON         N/A     59  57  93 CALM      29.87S
WILLISTON      FAIR      63  55  75 SW3       29.82S
DICKINSON      FAIR      60  50  69 S9        29.87R
HETTINGER      FAIR      59  48  67 SE8       29.91S
$$

 *****  OTHER OBSERVATIONS NORTHEAST NORTH DAKOTA  *****

CITY           SKY/WX    TMP DP  RH WIND       PRES   REMARKS
WALHALLA       FAIR      57  57 100 CALM      29.85S
LANGDON        FAIR      55  55 100 CALM      29.88S
CAVALIER       FOG       57  57 100 CALM      29.85R VSB<1/4
GRAFTON        FOG       59  59 100 CALM      29.86S VSB<1/4
CANDO          FAIR      55  55 100 NW5       29.89S
FORT TOTTEN      N/A     58  58 100 CALM      29.95S
ROLLA          FAIR      55  55 100 N6        29.90R
RUGBY          PTSUNNY   55  55 100 CALM      29.86F
 ***** THE ABOVE OBSERVATIONS ARE NON NWS ARE NOT QUALITY
        CONTROLLED AND MAY MIS-REPORT RAIN FOR SNOW...
$$

 *****  OTHER OBSERVATIONS SOUTHEAST NORTH DAKOTA *****

CITY           SKY/WX    TMP DP  RH WIND       PRES   REMARKS
COOPERSTOWN    FAIR      59  59 100 N7        29.87S
VALLEY CITY      N/A     61  61 100 N7        29.87F
OAKES          NOT AVBL
GWINNER        SUNNY     63  59  88 NW9G16    29.85R
BUFFALO          N/A     59  57  92 NW9         N/A
WYNDMERE       NOT AVBL
 ***** THE ABOVE OBSERVATIONS ARE NON NWS ARE NOT QUALITY
       CONTROLLED AND MAY MIS-REPORT RAIN FOR SNOW...
$$

  *****  WEATHER ACROSS NORTHERN MINNESOTA  *****

CITY           SKY/WX    TMP DP  RH WIND       PRES   REMARKS
FLAG ISLAND    PTSUNNY   63  55  77 NE5       29.81F
WARROAD        CLOUDY    63  57  82 N6        29.83R
ROSEAU         PTSUNNY   61  54  77 N6        29.83R HAZE
HALLOCK        FAIR      55  55 100 CALM      29.84R
THF RVR FALLS  CLOUDY    62  60  93 N14       29.82S
HALSTAD          N/A     62  61  94 N12         N/A
FOSSTON        CLOUDY    61  59  94 N12       29.81R
BAUDETTE       CLOUDY    60  59  96 NE9       29.79S
WASKISH        CLOUDY    61  59  94 N6        29.78R
CROOKSTON      PTSUNNY   63  61  94 N9        29.83R
$$
  *****  WEATHER ACROSS CENTRAL AND WEST MINNESOTA  *****

CITY           SKY/WX    TMP DP  RH WIND       PRES   REMARKS
BEMIDJI        CLOUDY    60  59  97 N10       29.77R
PARK RAPIDS    CLOUDY    63  61  93 N10       29.74R
WADENA         PTSUNNY   63  63 100 N13G18    29.73R
DETROIT LAKES  CLOUDY    61  61 100 N13       29.78R
MOORHEAD       CLOUDY    63  61  94 N13G22    29.81R
FERGUS FALLS   CLOUDY    63  63 100 N16G23    29.77R FOG
ELBOW LAKE     CLOUDY    62  62 100 W15       29.77R FOG
MORRIS MN      CLOUDY    63  63 100 NW21      29.75R
STAPLES        CLOUDY    61  61 100 NW9       29.71R
WHEATON        CLOUDY    63  57  82 NW18G28   29.81R
$$
  *****  WEATHER ELSEWHERE ACROSS MINNESOTA  *****

CITY           SKY/WX    TMP DP  RH WIND       PRES   REMARKS
DULUTH         DRIZZLE   58  58 100 NE13G20   29.64S FOG
INTRNTL FALLS  LGT RAIN  59  57  93 NE8       29.78R
ELY            RAIN      57  57 100 NE7       29.71F
CLOQUET        RAIN      61  57  88 N9        29.64S
BRAINERD       LGT RAIN  62  61  96 N13       29.69R FOG
HIBBING        HVY RAIN  58  57  97 N9        29.71R FOG
ALEXANDRIA     CLOUDY    65  65 100 NW13      29.73R
SAINT CLOUD    LGT RAIN  63  63 100 N13G21    29.63R FOG
MINNEAPOLIS    CLOUDY    68  65  90 NW10      29.54R
$$

  *****  WEATHER ACROSS SOUTH DAKOTA  *****

CITY           SKY/WX    TMP DP  RH WIND       PRES   REMARKS
SIOUX FALLS    FAIR      63  60  90 NW14      29.85R
BROOKINGS      CLOUDY    63  57  82 NW14      29.85R
WATERTOWN      CLOUDY    62  60  93 NW21      29.83R
HURON          FAIR      58  55  90 NW9       29.89R
SISSETON         N/A     63  60  90 NW17      29.80R
ABERDEEN       FAIR      60  56  86 NW9       29.88R
MITCHELL       FAIR      59  56  89 W9        29.91R
PIERRE         FAIR      55  50  83 CALM      29.93R
MOBRIDGE       FAIR      57  55  93 CALM      29.90R FOG
RAPID CITY     FAIR      55  51  86 CALM      29.95R
$$

  *****  SOME WEATHER IN NEARBY STATES *****

CITY           SKY/WX    TMP DP  RH WIND       PRES   REMARKS
GLASGOW MT     FAIR      56  39  53 NW12      29.86R
GREAT FALLS MT FAIR      58  31  35 SW8       30.00R
CHEYENNE WY    FAIR      53  43  68 W3        30.18R
SCOTTSBLUFF NE FAIR      54  49  83 E7        30.06S
OMAHA NE       FAIR      66  59  78 NW12      29.90R
DES MOINES IA  FAIR      68  63  84 W13       29.80S
DAVENPORT IA   FAIR      73  69  87 SW9       29.78S
CHICAGO IL     CLOUDY    73  69  87 SW10      29.78S
EAU CLAIRE WI  CLOUDY    67  64  90 SE14      29.52F
LA CROSSE WI   CLOUDY    72  65  78 S14       29.59F
$$

  *****  SOME NATIONAL WEATHER *****

CITY           SKY/WX    TMP DP  RH WIND       PRES   REMARKS
LA GUARDIA NY  PTSUNNY   72  60  66 NE12      30.07S
RALEIGH NC     FAIR      83  75  77 SE3       30.05S HX  90
ATLANTA GA     FAIR      80  74  81 NW12      30.11R
NEW ORLEANS LA FAIR      82  78  88 S5        30.08S HX  91
OKLAHOMA CITY  FAIR      69  69 100 S5        30.00R
ALBUQUERQUE NM FAIR      63  46  54 CALM      30.22R
SALT LAKE CITY FAIR      67  46  47 SE10      30.09R
LOS ANGELES CA FAIR      66  61  84 CALM      29.98R
BOISE ID       FAIR      59  38  45 SE6       30.05R
SEATTLE WA     CLOUDY    59  56  89 SW5       30.16R
$$

*** WEATHER ACROSS MANITOBA...SASKATCHEWAN AND ONTARIO ***
                ***ONTARIO***

CITY           SKY/WX    TMP DP  RH WIND       PRES   REMARKS
GERALDTON      CLOUDY    57  52  82 NE7       29.89F
THUNDER BAY    SHOWER    61  61 100 NE15G22   29.73F FOG
SIOUX LOOKOUT  PTSUNNY   59  55  88 SE5       29.83F
TORONTO        PTSUNNY   70  63  78 SE8       30.00F
BIG TROUT LK   CLOUDY    64  63  94 S3        29.85F
PICKLE LAKE    PTSUNNY   59  55  88 E5        29.87F
DRYDEN         CLOUDY    59  57  94 E3        29.83F
KENORA         PTSUNNY   61  55  82 N3        29.84S
$$
                *** MANITOBA***

CITY           SKY/WX    TMP DP  RH WIND       PRES   REMARKS
BRANDON        PTSUNNY   54  52  94 W3        29.86F
DAUPHIN        SUNNY     54  50  87 W6        29.84F
ISLAND LAKE    NOT AVBL
PILOT MOUND      N/A     54  52  94 NW5         N/A
THE PAS        PTSUNNY   61  52  72 SW7       29.79F
THOMPSON       MOSUNNY   55  54  94 S2        29.74S
WINNIPEG       FOG       57  57 100 SE5       29.85R VSB 1/4
LYNN LAKE      SUNNY     59  52  77 MISG      29.66S HAZE
CHURCHILL      MOSUNNY   64  61  88 S10       29.72F
GILLAM         CLOUDY    61  59  94 SW7       29.74F FOG
$$
                ***SASKATCHEWAN***

CITY           SKY/WX    TMP DP  RH WIND       PRES   REMARKS
ESTEVAN        PTSUNNY   57  54  88 NE12      29.86R
KINDERSLEY     MOCLDY    55  50  82 SW6       29.91S
LLOYDMINSTER   PTCLDY    52  50  93 W10       29.89R FOG
PRINCE ALBERT  PTCLDY    52  52 100 VRB2      29.85F
REGINA         MOCLDY    61  46  59 E8        29.86S
YORKTON        MOSUNNY   52  50  93 SE3       29.87F
N. BATTLEFORD  CLEAR     55  52  88 W7        29.89S



USA.gov is the U.S. government's official web portal to all federal, state and local government web resources and services.